Weather History for Beaufort, SC

Change the Weather History Date:

Friday, December 7, 2012

  Actual Average (KNBC) Record (KNBC)
Temperature  
Mean Temperature 56 °F -  
Max Temperature 62 °F 62 °F 80 °F (1998)
Min Temperature 51 °F 43 °F 16 °F (1937)
Degree Days  
Heating Degree Days 8    
Growing Degree Days 6 (Base 50)    
Moisture  
Dew Point 49 °F    
Average Humidity 81    
Maximum Humidity 100    
Minimum Humidity 68    
Precipitation  
Precipitation 0.00 in - - ()
Sea Level Pressure  
Sea Level Pressure 30.04 in    
Wind  
Wind Speed 9 mph (North)    
Max Wind Speed 15 mph    
Max Gust Speed 16 mph    
Visibility 8 miles    
Events      
Averages and records for this station are not official NWS values.
T = Trace of Precipitation, MM = Missing Value Source: NWS Daily Summary

Daily Weather History Graph

Daily Weather History Graph

Search for Another Location

Airport:

Trip Planner

Search our weather history database for the weather conditions in past years. The results will help you decide how hot, cold, wet, or windy it might be!

Date:

Astronomy

Dec. 07, 2012 Rise Set
Actual Time 7:11 AM EST 5:17 PM EST
Civil Twilight 6:44 AM EST 5:44 PM EST
Nautical Twilight 6:13 AM EST 6:14 PM EST
Astronomical Twilight 5:43 AM EST 6:44 PM EST
Moon 12:47 AM EST (12/7) 12:56 PM EST (12/7)
Length of Visible Light 10h 59m
Length of Day
10h 05m
Last Quarter, 39% of the Moon is Illuminated
Dec 7
Last Quarter
Dec 13
New
Dec 20
First Quarter
Dec 28
Full
Jan 4
Last Quarter

Hourly Weather History & Observations

Time (EST) Temp. Dew Point Humidity Pressure Visibility Wind Dir Wind Speed Gust Speed Precip Events Conditions
12:15 AM 55.4 °F 46.4 °F 72% 30.10 in 10.0 mi NNE 15.0 mph - N/A   Overcast
12:35 AM 55.4 °F 46.4 °F 72% 30.09 in 10.0 mi NNE 15.0 mph - N/A   Overcast
12:55 AM 55.4 °F 46.4 °F 72% 30.09 in 10.0 mi NNE 15.0 mph - N/A   Overcast
1:15 AM 53.6 °F 46.4 °F 77% 30.09 in 10.0 mi NE 12.7 mph - N/A   Overcast
1:35 AM 53.6 °F 46.4 °F 77% 30.08 in 10.0 mi NE 12.7 mph 16.1 mph N/A   Overcast
1:55 AM 53.6 °F 46.4 °F 77% 30.07 in 10.0 mi NE 15.0 mph - N/A   Overcast
2:15 AM 53.6 °F 46.4 °F 77% 30.07 in 10.0 mi NNE 11.5 mph - N/A   Overcast
2:35 AM 53.6 °F 46.4 °F 77% 30.07 in 10.0 mi North 10.4 mph - N/A   Overcast
2:55 AM 53.6 °F 46.4 °F 77% 30.07 in 10.0 mi NNE 10.4 mph - N/A   Overcast
3:15 AM 53.6 °F 46.4 °F 77% 30.06 in 10.0 mi NNE 11.5 mph - N/A   Overcast
3:35 AM 53.6 °F 46.4 °F 77% 30.05 in 10.0 mi North 10.4 mph - N/A   Overcast
3:55 AM 53.6 °F 46.4 °F 77% 30.05 in 10.0 mi North 12.7 mph - N/A   Overcast
4:15 AM 53.6 °F 46.4 °F 77% 30.06 in 10.0 mi North 8.1 mph - N/A   Overcast
4:35 AM 53.6 °F 46.4 °F 77% 30.05 in 10.0 mi North 10.4 mph - N/A   Overcast
4:55 AM 53.6 °F 46.4 °F 77% 30.06 in 10.0 mi North 10.4 mph 16.1 mph N/A   Overcast
5:15 AM 51.8 °F 46.4 °F 82% 30.05 in 10.0 mi North 10.4 mph - N/A   Overcast
5:35 AM 51.8 °F 46.4 °F 82% 30.06 in 10.0 mi North 6.9 mph - N/A   Overcast
5:55 AM 51.8 °F 46.4 °F 82% 30.06 in 10.0 mi North 9.2 mph - N/A   Overcast
6:15 AM 51.8 °F 46.4 °F 82% 30.06 in 10.0 mi North 8.1 mph - N/A   Overcast
6:35 AM 51.8 °F 46.4 °F 82% 30.06 in 10.0 mi North 6.9 mph - N/A   Overcast
6:55 AM 51.8 °F 46.4 °F 82% 30.05 in 10.0 mi North 6.9 mph - N/A   Overcast
7:15 AM 51.8 °F 46.4 °F 82% 30.05 in 10.0 mi NNW 6.9 mph - N/A   Overcast
7:35 AM 51.8 °F 46.4 °F 82% 30.06 in 10.0 mi North 9.2 mph - N/A   Overcast
7:55 AM 51.8 °F 46.4 °F 82% 30.07 in 7.0 mi NNW 5.8 mph - N/A   Overcast
8:15 AM 51.8 °F 46.4 °F 82% 30.06 in 7.0 mi North 6.9 mph - N/A   Overcast
8:35 AM 51.8 °F 46.4 °F 82% 30.07 in 7.0 mi North 5.8 mph - N/A   Overcast
8:55 AM 51.8 °F 46.4 °F 82% 30.08 in 5.0 mi NNW 5.8 mph - N/A   Haze
9:15 AM 51.8 °F 48.2 °F 88% 30.09 in 3.0 mi North 6.9 mph - N/A   Overcast
9:35 AM 51.8 °F 50.0 °F 94% 30.09 in 3.0 mi NNW 10.4 mph - N/A   Overcast
9:55 AM 51.8 °F 50.0 °F 94% 30.09 in 2.5 mi North 10.4 mph - N/A   Overcast
10:15 AM 51.8 °F 50.0 °F 94% 30.09 in 4.0 mi NNW 9.2 mph - N/A   Overcast
10:35 AM 53.6 °F 50.0 °F 88% 30.09 in 5.0 mi NNW 9.2 mph - N/A   Overcast
10:55 AM 53.6 °F 50.0 °F 88% 30.09 in 7.0 mi NNW 9.2 mph - N/A   Overcast
11:15 AM 55.4 °F 48.2 °F 77% 30.07 in 7.0 mi NNW 8.1 mph - N/A   Overcast
11:35 AM 57.2 °F 48.2 °F 72% 30.06 in 7.0 mi NNW 5.8 mph - N/A   Overcast
11:55 AM 59.0 °F 50.0 °F 72% 30.05 in 10.0 mi North 5.8 mph - N/A   Overcast
12:15 PM 59.0 °F 50.0 °F 72% 30.04 in 10.0 mi NE 6.9 mph - N/A   Overcast
12:35 PM 57.2 °F 50.0 °F 77% 30.03 in 10.0 mi NE 5.8 mph - N/A   Overcast
12:55 PM 59.0 °F 50.0 °F 72% 30.02 in 7.0 mi North 4.6 mph - N/A   Overcast
1:15 PM 60.8 °F 51.8 °F 72% 30.01 in 7.0 mi North 6.9 mph - N/A   Overcast
1:35 PM 60.8 °F 50.0 °F 68% 30.00 in 7.0 mi WNW 5.8 mph - N/A   Overcast
1:55 PM 60.8 °F 51.8 °F 72% 30.01 in 10.0 mi NNW 4.6 mph - N/A   Overcast
2:15 PM 60.8 °F 51.8 °F 72% 30.00 in 7.0 mi North 4.6 mph - N/A   Overcast
2:35 PM 60.8 °F 51.8 °F 72% 29.99 in 10.0 mi North 4.6 mph - N/A   Overcast
2:55 PM 60.8 °F 51.8 °F 72% 29.99 in 10.0 mi North 4.6 mph - N/A   Overcast
3:15 PM 60.8 °F 51.8 °F 72% 29.99 in 7.0 mi NW 3.5 mph - N/A   Overcast
3:35 PM 60.8 °F 51.8 °F 72% 29.99 in 7.0 mi NW 4.6 mph - N/A   Overcast
3:55 PM 62.6 °F 51.8 °F 68% 29.99 in 10.0 mi NW 4.6 mph - N/A   Mostly Cloudy
4:15 PM 62.6 °F 51.8 °F 68% 29.99 in 7.0 mi NW 4.6 mph - N/A   Mostly Cloudy
4:35 PM 60.8 °F 51.8 °F 72% 29.98 in 10.0 mi Calm Calm - N/A   Overcast
4:55 PM 60.8 °F 51.8 °F 72% 29.99 in 7.0 mi NE 3.5 mph - N/A   Overcast
5:15 PM 60.8 °F 51.8 °F 72% 29.99 in 7.0 mi North 4.6 mph - N/A   Overcast
5:35 PM 60.8 °F 51.8 °F 72% 29.99 in 10.0 mi NNW 4.6 mph - N/A   Overcast
5:55 PM 59.0 °F 51.8 °F 77% 30.00 in 7.0 mi NNW 5.8 mph - N/A   Overcast
6:15 PM 59.0 °F 51.8 °F 77% 30.01 in 7.0 mi NNW 4.6 mph - N/A   Overcast
6:35 PM 59.0 °F 51.8 °F 77% 30.01 in 10.0 mi North 3.5 mph - N/A   Overcast
6:55 PM 59.0 °F 51.8 °F 77% 30.02 in 7.0 mi Calm Calm - N/A   Overcast
7:15 PM 55.4 °F 51.8 °F 88% 30.01 in 7.0 mi Calm Calm - N/A   Mostly Cloudy
7:35 PM 55.4 °F 51.8 °F 88% 30.02 in 7.0 mi Calm Calm - N/A   Scattered Clouds
7:55 PM 55.4 °F 51.8 °F 88% 30.02 in 7.0 mi Calm Calm - N/A   Mostly Cloudy
8:15 PM 53.6 °F 51.8 °F 94% 30.03 in 5.0 mi Calm Calm - N/A   Mostly Cloudy
8:35 PM 53.6 °F 51.8 °F 94% 30.03 in 5.0 mi Calm Calm - N/A   Scattered Clouds
8:55 PM 53.6 °F 51.8 °F 94% 30.03 in 7.0 mi Calm Calm - N/A   Clear
9:15 PM 53.6 °F 51.8 °F 94% 30.03 in 7.0 mi Calm Calm - N/A   Clear
9:35 PM 53.6 °F 51.8 °F 94% 30.03 in 7.0 mi WNW 4.6 mph - N/A   Clear
9:55 PM 53.6 °F 51.8 °F 94% 30.03 in 7.0 mi Calm Calm - N/A   Clear
10:15 PM 51.8 °F 51.8 °F 100% 30.04 in 5.0 mi Calm Calm - N/A   Clear
10:35 PM 51.8 °F 51.8 °F 100% 30.04 in 7.0 mi Calm Calm - N/A   Clear
10:55 PM 51.8 °F 50.0 °F 94% 30.04 in 5.0 mi Calm Calm - N/A   Clear
11:35 PM 51.8 °F 50.0 °F 94% 30.03 in 4.0 mi Calm Calm - N/A   Clear
11:55 PM 51.8 °F 50.0 °F 94% 30.02 in 5.0 mi Calm Calm - N/A   Clear